Snowfall_Accumulation
0.2 0.2 0.2 0.2 0.2 0.1 0.0 0.0 0.0 0.0 0.0 0.0 0.0 0.0 0.0 0.0 0.0 0.0 0.0 0.0 0.0 0.0
0.4 0.5 0.3 0.1 0.1 0.1 0.0 0.0 0.0 0.0 0.0 0.0 0.0 0.0 0.0 0.0 0.0 0.0 0.0 0.0 0.0 0.0
1.0 0.9 0.8 0.3 0.2 0.1 0.1 0.0 0.0 0.0 0.0 0.0 0.0 0.0 0.0 0.0 0.0 0.0 0.0 0.0 0.0 0.0
2.1 2.3 1.1 3.4 0.4 0.2 0.0 0.0 0.0 0.0 0.0 0.0 0.0 0.0 0.0 0.0 0.0 0.0 0.0 0.0 0.0 0.0
3.7 2.7 3.1 1.7 3.0 0.5 0.3 0.0 0.0 0.0 0.0 0.0 0.0 0.0 0.0 0.0 0.0 0.0 0.0 0.0 0.0 0.0
5.4 4.3 3.9 3.3 1.8 4.2 3.4 0.5 0.5 0.0 0.1 0.1 0.0 0.0 0.0 0.0 0.0 0.0 0.0 0.0 0.0 0.0
5.3 5.5 4.0 3.3 2.9 3.0 5.5 2.0 1.4 0.2 0.2 0.1 0.0 0.0 0.0 0.0 0.0 0.0 0.0 0.0 0.0 0.0
0.4 2.8 4.1 3.3 3.2 2.8 2.6 6.0 3.8 2.5 1.1 0.1 0.3 0.2 0.3 0.4 0.3 0.1 0.1 1.0 0.7 1.6
0.0 0.3 1.7 2.7 3.5 2.8 3.0 2.6 5.6 4.2 4.3 3.5 1.0 0.3 0.7 0.9 3.0 3.3 3.8 3.1 1.4 1.5
0.0 0.1 0.1 0.8 2.0 3.7 4.5 3.5 3.2 5.3 4.7 4.7 1.4 0.4 0.7 1.4 2.3 5.3 4.0 3.0 2.0 0.9
0.4 0.3 0.0 0.3 0.9 2.1 4.0 6.1 4.4 3.7 4.7 8.5 3.6 0.6 1.0 2.1 3.6 3.9 2.1 1.6 0.3 0.6
0.9 1.7 1.4 2.0 2.5 3.9 3.4 4.9 6.6 5.4 5.6 8.6 6.1 1.5 1.3 1.4 2.2 1.4 0.7 0.3 0.1 0.1
1.1 2.4 3.0 2.0 3.5 4.1 4.5 6.7 6.1 6.9 5.0 4.9 5.4 2.3 1.2 1.7 3.8 3.0 0.9 0.2 0.1 0.0
1.2 2.6 2.7 3.4 4.2 4.2 3.3 4.8 6.3 5.5 4.2 4.7 4.3 3.3 1.4 1.4 3.8 4.1 2.8 1.5 0.8 0.3